Regional Weather Roundup
Issued by NWS Upton, NY

Home | Current Version | Previous Version | Text Only | Print | Product List | Glossary On
Versions: 1 2 3 4 5 6 7 8 9 10 11 12 13 14 15 16 17 18 19 20 21 22 23 24 25 26 27 28 29 30
000
ASUS41 KOKX 251504
RWROKX

REGIONAL WEATHER ROUNDUP
NATIONAL WEATHER SERVICE NEW YORK NY
1100 AM EDT THU AUG 25 2016

NOTE: "FAIR" INDICATES FEW OR NO CLOUDS BELOW 12,000 FEET WITH NO
SIGNIFICANT WEATHER AND/OR OBSTRUCTIONS TO VISIBILITY.

NYZ071-072-176-178-NJZ106-104-251600-
NEW YORK CITY METRO AREA

CITY           SKY/WX    TMP DP  RH WIND       PRES   REMARKS
Central Park     N/A     79  64  61 MISG        N/A
LaGuardia APRT PTSUNNY   82  61  48 SW13G21   30.09F
Kennedy INTL   PTSUNNY   79  67  66 S12       30.12F
Newark/Liberty PTSUNNY   81  62  52 SW14      30.09F
Bronx Bot Gard   N/A     81  63  54 SE3       30.10F
Wall St Helipt MOSUNNY   81  63  54 SW10      30.11F
Teterboro      MOSUNNY   82  63  52 S12       30.08F
$$

NYZ177-179-078>081-251600-
LONG ISLAND NEW YORK

CITY           SKY/WX    TMP DP  RH WIND       PRES   REMARKS
Farmingdale    SUNNY     80  64  58 SW15      30.12F
MacArthur/ISP  PTSUNNY   80  65  59 SW10      30.12S
Shirley        SUNNY     79  65  62 S10       30.13S
Riverhead      NOT AVBL
Westhampton    SUNNY     78  64  61 SW13G21   30.15S
Southampton      N/A     75  68  78 SW7       30.09S
Bridgehampton    N/A     79  68  69 S2        30.12F
East Hampton   FAIR      77  66  67 SW13G18   30.13R
Montauk          N/A     78  67  68 SW8       30.14F
$$

NYZ052-065-067-251600-
HUDSON VALLEY

CITY           SKY/WX    TMP DP  RH WIND       PRES   REMARKS
White Plains   MOSUNNY   80  65  59 S6        30.10F
Newburgh       PTSUNNY   79  68  69 W9        30.09F
Montgomery     MOSUNNY   79  68  69 SW13      30.07S
Poughkeepsie   MOSUNNY   80  66  62 VRB7      30.06F
Albany         CLOUDY    74  64  71 S16G22    30.02F
$$

NJZ001-105-106-008-010-013-015-019>022-104-251600-
NEW JERSEY

CITY           SKY/WX    TMP DP  RH WIND       PRES   REMARKS
Newark/Liberty PTSUNNY   81  62  52 SW14      30.09F
Teterboro      MOSUNNY   82  63  52 S12       30.08F
Caldwell       PTSUNNY   79  66  64 SW8       30.09F
Morristown     NOT AVBL
Somerville     MOSUNNY   79  66  64 VRB7      30.08F
Linden         FAIR      80  61  51 SW5       30.12S
Sussex         PTSUNNY   75  67  76 SW12G21   30.08F
Abdover          N/A     76  66  71 SW8       30.10F
Trenton        CLOUDY    80  65  59 SW10      30.10F
Millville      SUNNY     80  70  71 VRB5      30.13F
Atlantic City  MOSUNNY   82  64  54 SW13      30.13S
Wrightstown    MOSUNNY   81  65  59 S12       30.09F
Toms River     MOSUNNY   82  63  52 S10       30.12F
Belmar         MOSUNNY   80  61  52 S9        30.13F
$$

PAZ047>061-062-071-251600-
EASTERN PENNSYLVANIA

CITY           SKY/WX    TMP DP  RH WIND       PRES   REMARKS
Philadelphia   PTSUNNY   82  66  58 SW15      30.10F
Allentown      MOSUNNY   79  66  64 SW7       30.09F
Scranton       MOSUNNY   80  67  64 SW13      30.07S
$$

CTZ002-004>006-009-010-012-RIZ004-006-007-MAZ004-011-015-251600-
SOUTHERN NEW ENGLAND
 IN CT

CITY           SKY/WX    TMP DP  RH WIND       PRES   REMARKS
Bradley INTL   PTSUNNY   80  64  58 SW12G21   30.08F
Hartford       SUNNY     82  66  58 S8        30.08F
Danbury        MOSUNNY   77  65  66 S10       30.10F
Wtrbury/Oxford PTSUNNY   75  63  64 SW9G16    30.14F
Bridgeport     SUNNY     79  66  64 SW9       30.10F
Meriden        SUNNY     81  63  54 S15       30.09F
New Haven      PTSUNNY   76  66  71 S8        30.11F
Chester          N/A     77  64  65 S9G16     30.12F
Groton         SUNNY     80  67  64 SW12      30.11F
Wilimantic     SUNNY     80  66  62 SW10      30.10F

 IN RI

CITY           SKY/WX    TMP DP  RH WIND       PRES   REMARKS
Providence     PTSUNNY   81  62  52 W16G24    30.10F
Block Island     N/A     77  68  73 SW14      30.13
Westerly       SUNNY     79  63  57 SW13G20   30.13F
 IN MA

CITY           SKY/WX    TMP DP  RH WIND       PRES   REMARKS
Boston         PTSUNNY   83  63  50 SW20      30.06F
Worcester      SUNNY     76  62  62 SW17G26   30.10F
Westfield      MOSUNNY   81  66  60 S16       30.06F
Provincetown   SUNNY     78  67  68 SW15G23   30.11F
Nantucket      SUNNY     75  67  76 S14       30.14F
$$

ANZ330-335-338-340-345-350-353-355-251600-
COASTAL MARINE OBSERVATIONS


STATION/POSITION TIME  SKY/WX   TEMP    WIND        PRES    VSBY  WAVE
                                AIR SEA DIR/SP/G                  HT/PER
                 (UTC)          (F)     (DEG/KT/KT) (MB)    (MI)  (FT/S)
NY HARB ENTRANCE 1350            74 74  200/ 12/ 14 1019.8          3/11
20S FIRE ISLAND  1350            74 74  210/ 12/ 14 1020.4          3/10
GREAT SOUTH BAY  1400            75 78  220/ 12/ 16   N/A
23 SSW MONTAUK P 1350            74 74  230/ 10/ 14 1021.2          3/10
15 E BARNEGAT LI 1400               75                N/A           2/11
HUDSON CANYON    1350            77 77              1021.3          2/10
KINGS POINT      1400            76 75              1019.2
EXECUTION ROCKS  1400            80     210/ 10/ 12   N/A
CENTRAL LI SOUND 1400            74 75  220/ 10/ 12   N/A           1/ 3
EASTERN LI SOUND 1400            75 70  240/  6/ 10   N/A
ROBBINS REEF     1400            76     220/ 12/ 15 1018.8
$$


>>>>>>>>>>>>>>>>>>>>>>>>>>>> KEY <<<<<<<<<<<<<<<<<<<<<<<<<<<
>                                                          <
>     SKY/WX - Sky Condition/Present Weather               <
>     TMP    - Temperature in Fahrenheit                   <
>     DP     - Dew Point in Fahrenheit                     <
>     RH     - Relative Humidity in Percent                <
>     WIND   - Direction (from) and Speed in MPH           <
>     PRES   - Mean Sea Level Pressure (inches of Hg)      <
>     WCI    - Wind Chill Index                            <
>     VSB    - VISIBILITY IN MILES                         <
>     HX     - HEAT INDEX                                  <
>     TC     - TEMPERATURE IN CELSIUS                      <
>     VRB    - VARIABLE WIND DIRECTION                     <
>                                                          <
>>>>>>>>>>>>>>>>>>>>>>>>>>>> KEY <<<<<<<<<<<<<<<<<<<<<<<<<<<




USA.gov is the U.S. government's official web portal to all federal, state and local government web resources and services.